SP4LIN-15 Weather Reports


time (UTC)temp
C
wind
direction
speed
KPH
gust
KPH
rain 1hr
cm
rain 24hr
cm
rain mn
cm
humidity
%
barometer
mb
20260504080907 27 247 0.0 6.4 0.00 0.00 0.00 35 1003.2
20260504045407 16 270 3.2 8.0 0.00 0.00 0.00 55 1002.6
20260504043907 15 225 4.8 6.4 0.00 0.00 0.00 56 1002.5
20260504042407 15 225 11.3 11.3 0.00 0.00 0.00 57 1002.5
20260504040907 15 247 3.2 6.4 0.00 0.00 0.00 57 1002.5
20260504035407 14 225 6.4 6.4 0.00 0.00 0.00 57 1002.5
20260504033907 14 247 3.2 9.7 0.00 0.00 0.00 58 1002.7
20260504032407 13 157 3.2 6.4 0.00 0.00 0.00 59 1002.7
20260504030907 13 180 0.0 0.0 0.00 0.00 0.00 61 1002.6
20260504025407 12 247 3.2 3.2 0.00 0.00 0.00 61 1002.6
20260504023907 12 315 0.0 0.0 0.00 0.00 0.00 61 1002.6
20260504022407 12 247 0.0 0.0 0.00 0.00 0.00 60 1002.6
20260504020907 12 247 0.0 0.0 0.00 0.00 0.00 59 1002.7
20260504015407 12 247 1.6 1.6 0.00 0.00 0.00 58 1002.8
20260504013907 13 225 0.0 0.0 0.00 0.00 0.00 58 1002.8
20260504012407 12 225 0.0 0.0 0.00 0.00 0.00 57 1003.0
20260504010907 13 90 0.0 0.0 0.00 0.00 0.00 56 1003.0
20260504005407 13 225 0.0 0.0 0.00 0.00 0.00 56 1003.1
20260504003907 13 202 0.0 0.0 0.00 0.00 0.00 55 1003.0
20260504002407 12 157 0.0 0.0 0.00 0.00 0.00 55 1003.1
20260504000907 12 225 0.0 0.0 0.00 0.00 0.00 55 1003.1
20260503235407 12 112 0.0 0.0 0.00 0.00 0.00 53 1003.3
20260503233907 13 225 0.0 0.0 0.00 0.00 0.00 53 1003.3
20260503232407 13 270 0.0 0.0 0.00 0.00 0.00 53 1003.3
20260503230907 13 225 0.0 0.0 0.00 0.00 0.00 52 1003.5
20260503225407 13 225 0.0 0.0 0.00 0.00 0.00 51 1003.5
20260503223907 13 225 0.0 0.0 0.00 0.00 0.00 50 1003.5
20260503222407 13 225 0.0 0.0 0.00 0.00 0.00 49 1003.6
20260503220907 13 225 0.0 0.0 0.00 0.00 0.00 49 1003.5
20260503215407 14 225 0.0 0.0 0.00 0.00 0.00 48 1003.7
20260503213908 15 225 0.0 0.0 0.00 0.00 0.00 48 1003.5
20260503212408 15 225 0.0 4.8 0.00 0.00 0.00 47 1003.6
20260503210908 15 247 0.0 0.0 0.00 0.00 0.00 47 1003.5
20260503205408 16 180 0.0 1.6 0.00 0.00 0.00 46 1003.4
20260503203908 16 270 0.0 0.0 0.00 0.00 0.00 46 1003.5
20260503202408 16 247 0.0 0.0 0.00 0.00 0.00 45 1003.5
20260503200908 17 202 0.0 0.0 0.00 0.00 0.00 44 1003.7
20260503195408 17 225 0.0 0.0 0.00 0.00 0.00 45 1003.6
20260503193908 17 270 0.0 0.0 0.00 0.00 0.00 43 1003.8
20260503192408 17 270 0.0 0.0 0.00 0.00 0.00 44 1003.7
20260503190908 17 0 0.0 0.0 0.00 0.00 0.00 44 1003.4
20260503185408 17 225 0.0 0.0 0.00 0.00 0.00 42 1003.5
20260503183908 18 135 0.0 0.0 0.00 0.00 0.00 40 1003.4
20260503182408 19 135 0.0 0.0 0.00 0.00 0.00 37 1003.4
20260503180908 20 135 0.0 0.0 0.00 0.00 0.00 34 1003.2
20260503175408 22 202 0.0 0.0 0.00 0.00 0.00 32 1003.2
20260503173908 24 112 0.0 1.6 0.00 0.00 0.00 30 1003.2
20260503172408 25 180 0.0 3.2 0.00 0.00 0.00 30 1003.2
20260503170908 26 45 0.0 0.0 0.00 0.00 0.00 28 1003.2
20260503150908 31 247 12.9 12.9 0.00 0.00 0.00 24 1004.2
20260503130908 28 270 0.0 9.7 0.00 0.00 0.00 26 1005.6